Theta_e
354 356 349 349 352 355 351 349 360 365 362 358 355 352 348 347 347 348 346 340 338 337 336 332 328 327 325 323 320 317 316 315 312 314 317 322 322 321 321 321 322 321 320
353 351 342 344 352 350 349 353 358 360 360 357 354 349 348 346 345 343 339 337 336 333 330 326 323 321 321 321 318 319 317 317 313 313 319 317 320 321 320 322 319 318 320
346 352 346 349 343 341 341 347 354 357 358 355 352 348 344 342 341 339 336 334 332 329 326 323 321 320 319 318 318 316 316 316 316 314 314 317 317 319 317 321 320 321 317
342 345 350 355 353 346 337 347 352 357 357 354 351 346 343 341 337 334 332 329 327 324 322 320 318 318 318 317 316 316 317 316 317 314 314 314 315 318 314 312 310 314 314
339 341 350 355 353 354 349 353 355 355 353 350 348 344 339 336 331 330 328 327 323 320 319 318 315 309 307 307 313 315 315 314 314 312 312 312 311 310 310 310 309 312 317
335 340 348 350 353 351 350 354 351 348 347 346 341 336 332 328 307 313 322 323 320 318 316 312 311 307 305 304 304 303 305 307 308 307 308 308 310 309 309 308 310 309 309
332 339 348 350 347 349 351 347 341 342 343 338 334 329 327 320 305 306 311 321 320 319 318 317 313 309 312 312 303 303 302 302 302 305 306 307 307 308 307 307 310 310 311
335 342 345 345 342 345 341 338 338 338 335 332 330 324 319 313 303 303 308 321 319 319 318 316 315 311 301 306 312 312 311 311 310 307 308 308 308 307 307 307 309 311 316
336 334 337 336 334 336 331 332 332 332 331 328 324 320 315 313 302 303 313 318 316 314 310 304 312 305 293 295 308 309 310 310 302 301 302 299 298 298 299 306 308 309 310
328 328 329 328 326 326 326 326 330 329 326 323 319 317 310 312 297 298 309 314 312 309 308 304 294 297 293 294 307 308 308 308 310 311 310 304 300 304 298 303 308 307 308
320 322 322 323 322 322 323 324 325 323 322 319 315 314 312 310 304 297 298 314 310 308 306 303 297 292 292 293 294 306 303 302 308 310 313 313 314 312 308 312 312 309 307
315 315 315 316 317 318 318 320 320 318 318 315 314 311 309 309 301 296 296 298 304 310 307 302 295 292 292 292 298 293 293 294 305 311 310 309 308 308 309 311 314 314 313
309 308 310 312 313 314 313 314 313 315 313 310 308 307 305 305 304 296 294 297 297 307 301 293 292 291 292 293 295 295 294 308 308 306 305 305 305 305 309 311 314 314 316
306 306 308 308 310 311 312 313 313 316 312 309 307 306 304 303 303 304 303 299 296 295 294 298 297 298 296 298 299 302 304 303 303 302 302 303 304 303 304 304 305 308 308
304 304 305 306 304 303 299 306 309 309 309 308 307 306 303 302 301 299 301 300 301 298 300 301 301 303 303 303 303 303 302 303 302 302 302 302 302 301 302 304 303 303 303
302 301 301 300 301 301 301 299 292 293 293 292 294 301 296 292 290 290 290 291 290 291 298 301 301 301 301 301 301 301 301 301 301 301 301 301 301 300 301 302 302 301 301
298 299 300 299 299 298 299 298 296 292 291 290 290 290 291 289 289 289 289 289 289 289 300 300 299 299 299 300 300 300 299 300 302 301 301 301 301 301 300 300 300 299 299
299 297 299 299 297 296 297 296 296 294 292 292 290 290 288 288 288 288 288 289 295 294 299 298 298 298 298 299 300 300 299 300 300 300 300 300 300 300 299 299 299 298 298
298 299 300 299 299 298 300 298 297 296 293 292 292 290 289 288 288 288 289 297 297 296 297 297 297 297 297 298 299 299 298 298 298 298 298 298 299 299 299 299 299 292 293
297 294 297 299 300 301 300 298 296 294 294 294 291 290 291 290 294 295 297 297 297 296 296 296 296 297 297 297 297 298 298 297 298 298 298 298 298 299 298 298 298 297 297
298 297 291 299 299 299 299 299 297 296 296 296 296 294 289 298 297 296 296 296 296 296 296 295 295 295 295 296 296 296 296 296 297 296 296 297 297 297 298 297 297 297 297
300 300 300 299 300 300 299 300 301 301 298 297 296 294 289 298 297 296 295 295 295 296 296 295 294 294 295 294 294 294 294 294 295 296 296 296 296 296 296 296 296 296 296
301 301 301 301 301 295 299 300 300 298 298 296 295 295 296 295 295 295 294 294 295 295 295 295 294 294 294 294 293 293 293 293 294 296 296 296 296 295 296 295 295 294 294
302 301 299 299 299 299 299 299 299 295 297 296 296 296 296 296 295 295 294 294 294 294 294 294 293 293 294 293 293 290 289 289 294 295 296 296 295 294 295 294 294 294 293
302 301 300 300 299 300 299 299 299 299 298 297 297 296 295 295 295 294 294 293 293 293 293 294 293 293 292 291 290 288 284 283 288 284 295 296 295 294 294 294 293 293 293
302 301 300 299 300 299 299 298 298 298 297 297 296 296 296 295 295 295 294 293 293 293 293 293 293 293 291 289 286 283 283 284 287 284 288 295 294 293 292 293 292 292 292
Wind_Speed
21 19 14 11 18 18 18 17 18 17 19 19 19 19 18 16 13 10 10 12 10 8 8 6 5 3 1 1 3 3 4 5 7 7 6 6 6 6 8 9 10 10 5
21 21 13 11 10 7 13 12 19 19 18 19 18 19 18 16 14 12 12 11 10 10 8 7 5 4 3 1 3 2 3 4 5 7 5 5 5 7 7 9 7 9 9
20 20 22 21 20 19 8 11 13 20 19 19 19 19 17 15 13 13 12 12 11 10 9 7 5 4 3 3 2 4 4 5 4 6 6 5 6 5 8 8 8 9 8
20 18 18 19 21 18 19 22 27 21 19 19 18 17 16 14 14 13 13 13 12 10 8 6 4 4 4 2 2 2 4 6 3 5 5 5 6 9 8 9 9 9 9
19 19 16 17 19 21 20 18 16 17 17 19 17 16 15 14 12 15 13 13 12 11 10 7 9 9 13 10 5 7 6 6 6 6 6 6 8 9 9 9 9 8 7
17 19 18 19 22 20 19 21 18 16 15 16 17 17 16 11 14 13 14 13 12 11 10 10 8 11 9 9 11 12 7 6 7 7 7 9 9 9 9 9 9 8 8
16 17 19 19 18 20 19 19 16 17 16 16 16 17 14 15 15 14 14 12 11 9 9 8 7 5 6 8 7 7 6 6 5 5 7 8 9 10 9 9 9 8 8
10 13 15 18 14 17 17 17 17 17 16 15 16 17 17 12 15 14 13 13 11 9 7 5 8 7 7 8 3 3 3 3 3 5 5 6 6 6 8 9 11 13 8
14 11 14 16 14 16 17 17 16 17 16 15 16 18 18 16 14 13 13 13 12 11 11 11 8 8 8 8 6 3 2 4 8 6 6 5 7 9 9 9 9 10 8
12 12 13 16 16 15 17 17 16 15 16 16 17 17 18 18 13 12 4 10 11 9 9 9 17 9 8 9 5 3 1 4 5 2 8 10 12 11 12 9 7 9 9
12 13 14 15 17 16 16 15 17 16 16 17 18 16 18 15 12 12 13 10 9 8 8 8 7 6 5 8 8 5 4 5 9 8 3 2 1 5 5 2 3 6 8
16 16 15 15 13 13 17 15 16 16 18 16 17 15 13 13 10 14 15 15 7 7 8 10 7 3 3 5 2 3 7 8 9 3 3 4 5 6 6 6 6 4 5
19 17 14 16 15 14 16 16 14 13 14 15 13 13 12 10 10 14 15 16 15 9 10 11 10 7 3 4 2 7 11 2 4 4 5 5 5 5 7 6 6 4 4
20 18 13 15 15 14 11 9 10 10 12 12 12 12 11 10 9 9 9 10 14 11 11 7 5 5 1 5 4 3 5 5 5 4 4 5 5 6 5 6 7 7 5
17 16 14 11 12 13 12 8 8 7 8 11 11 12 12 11 9 8 9 9 8 8 9 8 8 6 5 6 5 5 5 4 5 5 5 6 6 7 6 6 7 7 6
14 12 11 11 10 11 13 15 23 23 27 24 19 14 12 16 16 16 13 14 12 8 5 6 5 5 4 5 4 5 5 5 5 5 6 6 6 7 7 6 7 7 8
14 14 11 11 9 10 11 12 14 18 28 24 23 19 18 15 18 14 12 9 3 2 5 6 6 5 5 5 4 5 5 4 4 5 6 6 7 6 7 7 8 9 9
16 16 11 10 10 9 10 10 11 11 12 11 15 14 15 15 12 10 8 8 5 5 7 6 6 5 5 5 5 5 5 4 5 6 6 7 7 7 7 8 9 10 10
12 10 10 8 9 9 11 11 12 11 12 11 11 12 9 9 7 3 0 4 7 7 6 7 6 5 5 5 4 5 5 5 5 5 6 6 7 7 7 8 8 7 9
11 16 11 7 8 9 10 10 12 11 10 9 8 8 7 6 7 7 5 7 7 7 7 6 6 5 5 5 4 5 5 5 5 5 6 6 7 7 7 9 9 9 10
7 8 7 7 7 7 6 8 10 9 10 9 10 9 6 6 8 7 7 7 7 6 7 6 6 6 5 5 5 5 6 6 6 6 6 6 7 7 8 8 8 9 9
6 5 4 5 5 7 6 6 6 7 9 9 10 5 5 8 8 7 8 7 7 7 5 6 7 6 7 7 6 6 5 6 6 6 6 6 7 7 7 8 8 9 10
8 8 8 7 6 7 6 7 9 10 9 10 10 9 7 8 8 8 8 8 7 6 6 6 6 7 6 6 7 7 7 6 6 6 6 7 7 7 7 8 8 9 10
5 6 8 9 7 6 7 7 7 10 11 12 10 8 9 8 8 9 8 7 7 7 7 7 7 7 6 7 7 8 7 7 7 6 11 6 7 8 7 8 9 10 9
5 7 6 7 7 6 7 8 9 10 11 9 9 9 9 9 9 8 8 7 7 7 7 7 7 9 11 12 11 11 8 7 7 10 9 7 8 10 9 7 9 8 10
5 6 6 6 6 7 8 9 9 9 9 9 10 9 9 9 8 8 8 8 7 7 8 7 8 10 11 11 11 8 7 8 9 9 9 6 7 8 8 9 11 8 10
Wind_Direction
199 197 200 201 179 188 175 173 161 153 153 161 165 171 174 172 167 176 156 154 158 147 143 141 124 169 98 59 326 321 321 336 307 319 319 14 344 345 346 336 322 324 339
188 192 191 158 226 199 173 163 151 146 159 168 172 174 174 168 163 155 157 153 151 144 134 141 144 134 117 85 298 47 322 308 320 311 329 324 3 336 351 330 342 320 320
203 197 176 182 167 239 146 165 174 155 167 169 169 170 166 159 153 152 150 147 146 138 141 145 145 141 101 40 2 346 352 324 306 326 305 342 350 22 346 336 341 307 305
196 198 172 179 165 184 169 197 189 159 161 164 166 164 152 155 153 148 145 146 134 125 123 121 143 113 107 49 80 338 34 304 324 293 329 348 344 30 344 332 332 326 328
195 194 174 173 162 169 165 169 181 153 159 161 155 149 149 153 150 151 143 134 125 125 118 118 70 79 73 54 359 30 2 351 348 350 343 351 2 354 340 344 326 336 314
212 187 171 161 164 160 163 163 160 159 149 139 147 146 140 156 112 116 132 130 129 127 122 113 132 127 96 84 79 69 54 21 19 4 352 358 354 331 344 336 321 349 337
216 187 162 139 156 160 160 153 141 139 136 142 141 138 134 116 110 119 123 125 128 131 137 147 155 105 222 133 145 150 147 123 81 20 341 345 333 349 332 327 342 323 313
196 144 136 144 142 142 141 141 136 131 136 135 138 126 127 118 112 114 115 122 123 122 119 116 92 91 34 344 343 76 67 117 60 13 3 356 340 335 325 304 290 280 274
135 132 151 138 139 139 134 132 127 130 133 130 128 130 130 120 111 119 125 128 122 123 74 34 109 80 18 2 308 52 55 56 126 172 245 264 255 251 268 317 359 325 350
142 138 134 126 129 133 128 127 130 129 126 128 127 127 122 121 58 48 107 126 129 115 111 86 57 59 17 2 357 8 307 52 10 276 213 234 236 238 230 252 335 334 339
112 114 117 118 123 124 126 131 126 130 124 124 119 123 126 122 74 53 27 133 133 145 132 124 86 52 17 1 336 30 33 330 282 249 262 30 116 191 179 257 9 324 339
106 102 105 110 114 121 124 121 119 117 119 125 128 122 121 115 85 63 57 56 9 132 114 89 106 146 83 353 332 336 294 279 265 324 5 23 2 8 352 333 327 276 276
100 95 102 109 110 113 114 116 116 126 128 136 129 125 127 120 100 75 61 58 41 88 75 86 131 178 196 186 258 274 273 344 10 11 16 11 11 20 317 356 325 339 282
100 102 101 104 109 104 110 116 120 133 138 131 130 129 126 124 133 126 117 96 92 96 121 146 149 166 293 80 214 224 72 33 358 20 21 6 6 16 8 8 353 350 349
98 102 105 96 86 84 57 76 96 78 117 131 128 132 137 141 125 121 128 142 154 135 138 158 181 173 134 118 96 84 39 30 29 28 21 11 15 19 4 19 7 356 348
97 93 99 95 91 95 96 88 60 67 64 63 67 92 80 104 99 88 90 82 71 50 221 135 120 103 98 90 97 91 59 48 18 26 28 18 15 21 360 18 14 5 355
86 93 95 89 93 99 99 96 97 66 63 63 72 78 87 105 94 93 90 90 89 305 162 117 109 103 94 85 81 66 70 44 28 34 28 19 6 14 11 12 16 13 357
76 74 91 100 98 98 95 106 97 90 93 83 51 80 77 85 97 117 148 176 153 199 112 112 105 98 87 83 70 63 60 29 40 33 29 23 9 10 14 11 18 17 358
69 74 82 88 93 102 106 93 103 103 99 107 109 89 86 88 101 134 67 263 117 110 108 101 98 94 92 90 89 93 61 57 23 31 32 23 10 11 18 12 11 23 8
69 62 68 80 94 94 100 107 100 106 108 110 109 122 136 153 147 155 164 110 114 112 106 100 95 88 84 84 74 67 70 52 42 35 30 24 12 13 13 14 13 5 20
73 65 55 57 65 85 104 108 120 132 134 139 148 152 173 185 131 126 118 115 108 102 99 108 107 95 91 72 57 62 64 50 34 29 27 25 15 14 12 13 12 10 24
122 115 121 114 109 110 121 124 120 121 122 136 133 140 321 122 119 120 111 104 99 92 93 90 82 70 58 55 40 50 57 56 37 18 22 22 29 4 15 14 15 13 5
120 136 137 147 146 139 168 153 139 147 127 119 140 155 142 121 125 118 112 107 103 95 93 90 87 84 75 64 57 38 38 26 23 11 14 19 30 360 19 16 9 14 6
109 114 123 131 147 162 141 137 137 128 135 147 163 131 118 116 113 107 114 114 112 106 95 82 71 77 81 72 71 62 43 18 345 8 338 18 30 2 15 22 3 11 10
130 129 137 135 145 128 123 131 138 139 142 145 123 125 128 126 127 121 121 121 119 109 108 108 103 91 75 66 60 51 30 353 355 329 341 24 37 22 7 21 1 13 15
162 143 141 148 130 138 141 139 140 142 143 133 134 135 135 133 131 130 127 128 128 121 112 100 100 97 87 72 54 38 9 358 346 339 322 15 16 47 0 10 8 10 10